Flag for Canada Weather past 2 weeks in Campbell River, British Columbia, Canada

Now
68 °F

Passing clouds.


Feels Like: 68 °F
Forecast: 52 / 71 °F
Wind: 6 mph from Northwest

Location: Campbell River Airport

Current Time: May 29, 2015 at 8:44:19 PM

Latest Report: May 29, 2015 at 8:00 PM


Visibility: 30 mi

Pressure: 29.87 "Hg

Humidity: 43%

Dew point: 45 °F

Location of Campbell RiverLocation

Historic Weather in Campbell River — Graph

°F

Campbell River temperature yesterday

Maximum temperature yesterday: 77 °F (at 5:00 PM)
Minimum temperature yesterday: 52 °F (at 6:00 AM)
Average temperature yesterday: 68 °F

Past Weeks' High & Low Weather Summary

 TemperatureHumidityPressure
High81 °F (May 20, 5:00 PM)100% (May 18, 6:00 AM)30.16 "Hg (May 18, 6:00 AM)
Low45 °F (May 15, 6:00 AM)28% (May 20, 5:00 PM)29.79 "Hg (May 21, 6:00 PM)
Average65 °F61%29.99 "Hg
* Reported May 14 7:00 PM — May 29 7:00 PM, Campbell River, Weather by CustomWeather, © 2015

Note: Actual official high and low records may vary slightly from our data, if they occured in-between our weather recording intervals... More about our weather records

Advertising

Campbell River weather history for previous 24 hours

 ConditionsComfort  
Time TempWeatherWind HumidityBarometerVisibility
7:00 PM
Fri, May 29
73 °FPassing clouds.12 mph33%29.87 "Hg30 mi
6:00 PM75 °FPassing clouds.8 mph36%29.88 "Hg30 mi
5:00 PM75 °FPassing clouds.7 mph34%29.89 "Hg30 mi
4:00 PM75 °FPassing clouds.5 mph36%29.91 "Hg30 mi
3:00 PM73 °FPassing clouds.5 mph36%29.92 "Hg30 mi
2:00 PM72 °FPassing clouds.7 mph41%29.94 "Hg7 mi
1:00 PM70 °FPassing clouds.6 mph43%29.95 "Hg30 mi
12:00 PM68 °FPassing clouds.2 mph49%29.96 "Hg30 mi
11:00 AM66 °FPassing clouds.5 mph49%29.97 "Hg30 mi
10:00 AM63 °FPassing clouds.6 mph52%29.98 "Hg30 mi
9:00 AM59 °FPassing clouds.13 mph55%29.99 "Hg30 mi
8:00 AM55 °FPassing clouds.12 mph63%29.99 "Hg30 mi
7:00 AM52 °FScattered clouds.10 mph72%30.00 "Hg30 mi
6:00 AM50 °FPassing clouds.7 mph71%29.99 "Hg30 mi
9:00 PM
Thu, May 28
66 °FPartly sunny.7 mph43%29.99 "Hg30 mi
8:00 PM72 °FPartly sunny.6 mph50%29.99 "Hg30 mi
Weather by CustomWeather, © 2015

See weather overviewHow to use our weather pages